DateTimeUTC,F1_A11,F1_S11,BsB_S11,BsG_S11,BsR_S11,BbsB_S11,BbsG_S11,BbsR_S11,BaB_A11,BaG_A11,BaR_A11,Tu_S11,T_S11,Uu_S11,U_S11,P_S11,T1_A11
2021-02-14T03:00:00Z,00000200,21000000,,,,,,,-000.09,-000.14,-000.03,16.9,23.4,00.6,00.4,0655.5,31.0
2021-02-14T03:01:00Z,00000200,21000000,,,,,,,0000.51,0000.38,-000.03,16.8,23.4,00.6,00.4,0655.5,31.0
2021-02-14T03:02:00Z,00000200,21000000,,,,,,,-000.20,0000.03,-000.14,16.8,23.4,00.6,00.4,0655.4,31.0
2021-02-14T03:03:00Z,00000200,61000000,,,,,,,0000.59,-000.29,0000.26,16.8,23.4,00.6,00.4,0655.4,31.0
2021-02-14T03:04:00Z,00000200,41000000,-000.18,0000.33,0000.01,0000.45,-000.20,0000.08,-000.18,-000.10,0000.20,17.0,23.2,00.9,00.6,0656.3,31.0
2021-02-14T03:05:00Z,00000200,01000000,0000.99,0000.65,-000.06,0000.57,-000.06,-000.02,0000.22,0000.35,-000.02,17.0,23.2,00.9,00.6,0656.3,31.0
2021-02-14T03:06:00Z,00000200,01000000,0000.83,0000.34,0000.10,0000.22,-000.06,0000.06,-000.17,0000.08,0000.39,17.1,23.2,01.0,00.7,0656.3,31.0
2021-02-14T03:07:00Z,00000200,01000000,0000.24,0000.23,0000.41,0000.28,0000.00,0000.07,0000.28,0000.19,-000.43,17.2,23.2,00.9,00.6,0656.3,31.0
2021-02-14T03:08:00Z,00000200,01000000,-000.50,0000.27,0000.50,0000.16,0000.05,0000.11,0000.09,0000.05,0000.17,17.2,23.2,01.0,00.7,0656.3,31.0
2021-02-14T03:09:00Z,00000200,01000000,0000.74,0000.15,0000.09,0000.28,0000.15,0000.06,-000.01,0000.16,0000.26,17.2,23.2,00.9,00.6,0656.3,31.0
2021-02-14T03:10:00Z,00000200,01000000,-000.05,0000.04,0000.07,-000.15,0000.04,0000.39,0000.05,-000.09,-000.11,17.2,23.2,01.0,00.7,0656.3,31.0
2021-02-14T03:11:00Z,00000200,01000000,0000.51,0000.31,0000.32,0000.31,0000.00,0000.18,0000.24,0000.22,-000.00,17.2,23.2,00.9,00.6,0656.3,31.0
2021-02-14T03:12:00Z,00000200,01000000,-000.05,0000.39,0000.08,0000.16,-000.19,0000.05,-000.30,-000.04,0000.15,17.2,23.2,00.9,00.6,0656.3,31.0
2021-02-14T03:13:00Z,00000200,01000000,0000.43,0000.31,0000.23,0000.57,-000.13,-000.23,0000.44,0000.01,0000.20,17.2,23.3,00.9,00.6,0656.3,31.0
2021-02-14T03:14:00Z,00000200,01000000,0001.09,0000.26,0000.07,0000.09,0000.02,-000.05,0000.07,0000.08,-000.04,17.2,23.2,00.9,00.6,0656.2,31.0
2021-02-14T03:15:00Z,00000200,01000000,0000.17,0000.26,-000.11,0000.93,0000.20,-000.23,-000.00,0000.11,0000.24,17.2,23.2,00.9,00.6,0656.2,31.0
2021-02-14T03:16:00Z,00000200,01000000,-000.23,0000.29,0000.23,-000.39,0000.29,0000.05,0000.09,0000.32,0000.03,17.2,23.2,01.0,00.7,0656.2,31.0
2021-02-14T03:17:00Z,00000200,01000000,-000.39,0000.42,0000.02,0000.73,0000.06,0000.06,0000.11,-000.11,-000.23,17.2,23.2,01.0,00.7,0656.1,31.0
2021-02-14T03:18:00Z,00000200,01000000,0000.24,0000.40,-000.04,0000.23,-000.07,0000.03,0000.22,0000.22,0000.14,17.2,23.2,00.9,00.6,0656.1,31.0
2021-02-14T03:19:00Z,00000200,01000000,-000.33,0000.31,0000.04,0000.14,-000.14,0000.23,-000.02,-000.18,0000.19,17.2,23.2,01.0,00.7,0656.2,31.0
2021-02-14T03:20:00Z,00000200,01000000,-000.45,-000.01,0000.13,0000.13,-000.10,-000.13,-000.04,0000.35,0000.01,17.2,23.2,01.0,00.7,0656.2,31.0
2021-02-14T03:21:00Z,00000200,01000000,0000.23,-000.02,0000.18,0000.20,-000.09,-000.05,-000.19,-000.16,0000.11,17.2,23.2,01.0,00.7,0656.2,31.0
2021-02-14T03:22:00Z,00000200,01000000,0000.40,0000.49,0000.04,0000.47,-000.02,-000.05,0000.59,-000.29,0000.05,17.2,23.2,01.0,00.7,0656.2,31.0
2021-02-14T03:23:00Z,00000200,01000000,0000.47,0000.47,-000.03,0000.54,-000.07,0000.18,-000.03,0000.71,0000.03,17.1,23.2,01.0,00.7,0656.1,31.0
2021-02-14T03:24:00Z,00000200,01000000,0000.66,0000.10,0000.15,0000.11,-000.00,0000.15,-000.01,0000.03,-000.07,17.2,23.2,01.0,00.7,0656.1,31.0
2021-02-14T03:25:00Z,00000200,01000000,-000.05,0000.25,0000.08,0000.11,-000.06,-000.11,0000.12,-000.11,0000.28,17.2,23.2,01.1,00.7,0656.2,31.1
2021-02-14T03:26:00Z,00000200,01000000,0000.44,0000.39,0000.32,-000.07,0000.10,0000.05,0000.23,0000.22,0000.01,17.2,23.2,01.1,00.8,0656.2,31.0
2021-02-14T03:27:00Z,00000200,01000000,0000.19,0000.34,0000.08,-000.00,0000.25,0000.19,0000.42,-000.01,0000.00,17.2,23.2,01.1,00.8,0656.2,31.0
2021-02-14T03:28:00Z,00000200,01000000,0000.24,0000.04,-000.06,0000.05,-000.03,-000.15,-000.40,0000.10,0000.32,17.2,23.2,01.2,00.8,0656.2,31.0
2021-02-14T03:29:00Z,00000200,01000000,0000.06,0000.13,-000.04,0000.33,-000.10,-000.02,0000.50,0000.59,0000.28,17.2,23.2,01.1,00.8,0656.2,31.0
2021-02-14T03:30:00Z,00000200,01000000,-000.08,0000.30,0000.03,0000.65,-000.02,-000.27,0000.16,-000.42,-000.10,17.2,23.2,01.2,00.8,0656.3,31.1
2021-02-14T03:31:00Z,00000200,01000000,0000.58,0000.30,0000.03,-000.24,-000.05,0000.02,0000.14,0000.25,-000.15,17.1,23.2,01.2,00.9,0656.3,31.0
2021-02-14T03:32:00Z,00000200,01000000,-000.16,0000.21,0000.07,0000.39,-000.07,0000.08,0000.32,0000.44,0000.30,17.2,23.2,01.3,00.9,0656.3,31.0
2021-02-14T03:33:00Z,00000200,01000000,0000.22,-000.12,0000.15,0000.60,-000.11,0000.29,0000.06,0000.12,0000.21,17.2,23.2,01.3,00.9,0656.3,31.0
2021-02-14T03:34:00Z,00000200,01000000,0000.21,0000.29,0000.15,0000.33,0000.09,0000.20,0000.33,0000.20,0000.01,17.1,23.2,01.3,00.9,0656.3,31.0
2021-02-14T03:35:00Z,00000200,01000000,-000.17,0000.23,0000.20,0000.26,0000.26,0000.10,0000.04,0000.21,0000.38,17.1,23.2,01.4,01.0,0656.3,31.0
2021-02-14T03:36:00Z,00000200,01000000,0000.08,0000.21,0000.41,0000.49,-000.18,0000.44,0000.27,0000.11,-000.31,17.1,23.2,01.4,01.0,0656.3,31.0
2021-02-14T03:37:00Z,00000200,01000000,0000.24,0000.27,-000.06,0000.25,0000.20,0000.26,0000.33,0000.09,0000.22,17.1,23.2,01.5,01.0,0656.3,31.0
2021-02-14T03:38:00Z,00000200,01000000,0000.27,0000.10,0000.23,-000.31,-000.23,0000.17,-000.37,0000.05,0000.12,17.1,23.2,01.5,01.0,0656.3,31.0
2021-02-14T03:39:00Z,00000200,01000000,-000.11,0000.06,0000.14,0000.37,-000.10,0000.10,0000.43,0000.34,0000.06,17.1,23.2,01.5,01.0,0656.3,31.0
2021-02-14T03:40:00Z,00000200,01000000,0000.22,0000.24,0000.14,-000.32,0000.06,0000.14,0000.22,-000.10,0000.17,17.2,23.2,01.5,01.0,0656.3,31.0
2021-02-14T03:41:00Z,00000200,01000000,0000.39,0000.07,0000.47,-000.03,0000.13,0000.09,0000.10,0000.23,0000.15,17.1,23.2,01.6,01.1,0656.2,31.0
2021-02-14T03:42:00Z,00000200,01000000,0000.17,0000.46,0000.23,0000.02,0000.17,0000.06,-000.11,0000.11,0000.25,17.2,23.2,01.6,01.1,0656.1,31.0
2021-02-14T03:43:00Z,00000200,01000000,0000.62,0000.33,0000.32,0000.47,0000.07,-000.08,0000.39,0000.18,-000.14,17.1,23.1,01.6,01.1,0656.1,31.0
2021-02-14T03:44:00Z,00000200,01000000,0000.37,0000.38,-000.16,0000.47,0000.18,0000.08,0000.06,0000.14,0000.33,17.1,23.1,01.7,01.2,0656.1,31.0
2021-02-14T03:45:00Z,00000200,01000000,-000.12,0000.13,0000.01,0000.45,0000.22,-000.10,0000.21,0000.28,-000.35,17.2,23.1,01.7,01.2,0656.1,31.0
2021-02-14T03:46:00Z,00000200,01000000,0000.17,-000.10,0000.14,-000.01,0000.10,0000.11,0000.04,-000.16,0000.13,17.1,23.1,01.7,01.2,0656.1,31.0
2021-02-14T03:47:00Z,00000200,01000000,0000.32,0000.30,0000.14,0000.46,0000.07,-000.07,0000.30,0000.30,0000.58,17.1,23.1,01.7,01.2,0656.1,31.0
2021-02-14T03:48:00Z,00000200,01000000,0000.14,0000.15,0000.47,-000.39,0000.15,0000.34,-000.05,-000.03,-000.14,17.1,23.1,01.8,01.2,0656.0,31.0
2021-02-14T03:49:00Z,00000200,01000000,0000.34,0000.03,0000.15,0000.48,-000.03,0000.09,0000.47,0000.25,0000.18,17.1,23.1,01.8,01.2,0656.0,31.0
2021-02-14T03:50:00Z,00000200,00000000,0000.10,0000.45,0000.05,0000.25,-000.10,-000.28,0000.11,0000.05,0000.11,17.2,23.1,01.9,01.3,0656.0,31.0
2021-02-14T03:51:00Z,00000200,01000000,-000.30,0000.44,0000.17,-000.05,-000.02,0000.32,0000.43,0000.67,0000.17,17.2,23.1,01.9,01.3,0655.9,31.0
2021-02-14T03:52:00Z,00000200,00000000,-000.19,0000.34,0000.52,-000.27,0000.03,0000.25,-000.09,0000.03,0000.37,17.3,23.2,02.0,01.4,0655.8,31.0
2021-02-14T03:53:00Z,00000200,01000000,0000.70,0000.28,0000.02,-000.03,0000.06,0000.22,0000.33,0000.12,-000.12,17.4,23.2,01.9,01.3,0655.8,31.1
2021-02-14T03:54:00Z,00000200,00000000,0000.58,0000.03,0000.41,0000.04,0000.09,0000.07,-000.05,-000.05,0000.21,17.4,23.2,02.0,01.4,0655.8,31.1
2021-02-14T03:55:00Z,00000200,00000000,0000.50,0000.22,-000.16,0000.40,0000.29,-000.10,0000.06,-000.02,0000.07,17.4,23.3,02.0,01.4,0655.8,31.1
2021-02-14T03:56:00Z,00000200,00000000,0000.08,-000.05,0000.20,-000.09,0000.12,0000.02,-000.24,-000.02,0000.02,17.4,23.3,02.0,01.4,0655.8,31.0
2021-02-14T03:57:00Z,00000200,40000000,,,,,,,-000.19,-000.58,-000.39,17.4,23.3,01.6,01.1,0655.9,31.1
2021-02-14T03:58:00Z,00000200,60000000,,,,,,,0000.19,0000.38,0000.01,17.2,23.4,01.5,01.0,0654.9,31.1
2021-02-14T03:59:00Z,00000200,20000000,,,,,,,0000.19,0000.33,-000.01,17.1,23.5,01.5,01.0,0654.9,31.1
